Regional Weather Roundup
Issued by NWS

Home | Current Version | Previous Version | Graphics & Text | Print | Product List | Glossary On
Versions: 1 2 3 4 5 6 7 8 9 10 11 12 13 14 15 16 17 18 19 20 21 22 23 24 25 26 27 28 29 30 31 32 33 34 35 36 37 38 39 40 41 42 43 44 45 46 47 48 49 50
000
ASUS45 KABQ 060010
RWRNM
WEATHER ROUNDUP FOR NEW MEXICO
NATIONAL WEATHER SERVICE ALBUQUERQUE NM
600 PM MDT TUE MAY 05 2015

NOTE: "FAIR" MEANS FEW OR NO CLOUDS BELOW 12,000 FEET AGL WITH NO
       SIGNIFICANT WEATHER OR OBSTRUCTIONS TO VISION.

      THIS PRODUCT IS RELEASED AS TWO VERSIONS.  ONE VERSION NEAR
      THE TOP OF THE HOUR CONTAINING PRELIMINARY DATA FROM ALBUQUERQUE
      AND OTHER STATIONS.  A FINAL VERSION WITH ADDITIONAL DATA IS
      ISSUED ABOUT 10 MINUTES AFTER THE HOUR.

NMZ501-503-504-510>518-060100-
NORTHWEST PLATEAU/NORTHCENTRAL MOUNTAINS

CITY           SKY/WX    TMP DP  RH WIND       PRES   REMARKS
FARMINGTON     LGT RAIN  55  47  74 SW17G24   29.86S
6HR MIN TEMP:  50; 6HR MAX TEMP:  58; 6HR PCP:  0.01;

LOS ALAMOS     MOSUNNY   54  37  52 W5        29.93R
SANTA FE       PTSUNNY   59  37  44 SW17G30   29.88R
6HR MIN TEMP:  48; 6HR MAX TEMP:  62; 6HR PCP:  0.05;

TAOS           CLOUDY    55  36  47 W17G23    29.89S
ANGEL FIRE     FAIR      48  36  63 W10       29.92F

$$
NMZ402-403-502-505>509-060100-
WESTCENTRAL MOUNTAINS/SOUTHWEST MOUNTAINS

CITY           SKY/WX    TMP DP  RH WIND       PRES   REMARKS
GALLUP         LGT RAIN  52  44  74 SW10      29.93F
6HR MIN TEMP:  48; 6HR MAX TEMP:  59; 6HR PCP:  0.13;

GRANTS         PTSUNNY   52  41  66 NW10G18   29.97R
SILVER CITY      N/A     66  36  32 W23G31    29.96S

$$
NMZ407-409-411-412-060100-
SOUTHERN DESERTS

CITY           SKY/WX    TMP DP  RH WIND       PRES   REMARKS
LORDSBURG      FAIR      72  36  26 W15G31    29.91S
DEMING         MOSUNNY   73  32  22 W18G36    29.89S
6HR MIN TEMP:  68; 6HR MAX TEMP:  76;

LAS CRUCES     SUNNY     72  32  23 W15G25    29.90S
ALAMOGORDO     CLOUDY    73  32  21 W12G18    29.87S
T OR C         PTSUNNY   71  33  24 W16       29.85S
6HR MIN TEMP:  65; 6HR MAX TEMP:  75;


$$
NMZ519>523-060100-
CENTRAL VALLEYS/CENTRAL HIGHLANDS

CITY           SKY/WX    TMP DP  RH WIND       PRES   REMARKS
ALBUQUERQUE    PTSUNNY   57  46  66 S13       29.90S
6HR MIN TEMP:  52; 6HR MAX TEMP:  63; 6HR PCP:  0.07;

DOUBLE EAGLE   PTSUNNY   55  46  71 SE13      29.90F
MORIARTY ARPT  FAIR      54  43  67 SW20      29.95S
6HR MIN TEMP:  46; 6HR MAX TEMP:  63; 6HR PCP:  0.08;

CLINES CORNERS CLOUDY    47  42  83 W16       29.92R
6HR MIN TEMP:  45; 6HR MAX TEMP:  59; 6HR PCP:  0.06;

BELEN          MOCLDY    63  38  39 SW7       29.88F
6HR MIN TEMP:  55; 6HR MAX TEMP:  65; 6HR PCP:  0.01;

SOCORRO        CLOUDY    60  49  66 CALM      29.89S
6HR MIN TEMP:  48; 6HR MAX TEMP:  64; 6HR PCP:  0.07;


$$
NMZ524>526-539-540-060100-
SOUTHCENTRAL MOUNTAINS

CITY           SKY/WX    TMP DP  RH WIND       PRES   REMARKS
RUIDOSO        MOSUNNY   61  30  31 SW23G30   29.96R

$$
NMZ527>531-060100-
NORTHEAST HIGHLANDS/NORTHEAST PLAINS

CITY           SKY/WX    TMP DP  RH WIND       PRES   REMARKS
LAS VEGAS      LGT RAIN  54  39  57 SW14G28   29.87R
6HR MIN TEMP:  49; 6HR MAX TEMP:  61; 6HR PCP:  0.01;

RATON          MOSUNNY   61  38  42 S7        29.79F
6HR MIN TEMP:  49; 6HR MAX TEMP:  63; 6HR PCP:  0.03;

CLAYTON        CLOUDY    57  49  74 S15       29.81F
6HR MIN TEMP:  54; 6HR MAX TEMP:  64; 6HR PCP:  0.12;


$$
NMZ532>537-060100-
EASTCENTRAL PLAINS

CITY           SKY/WX    TMP DP  RH WIND       PRES   REMARKS
TUCUMCARI      PTSUNNY   62  48  60 S13       29.79R
6HR MIN TEMP:  55; 6HR MAX TEMP:  67; 6HR PCP:  0.40;

CANNON AFB     NOT AVBL
CLOVIS AIRPORT PTSUNNY   64  45  48 SW15      29.85R

$$
NMZ028-029-538-060100-
SOUTHEAST PLAINS

CITY           SKY/WX    TMP DP  RH WIND       PRES   REMARKS
ROSWELL        MOSUNNY   75  38  26 SW18G26   29.78S
6HR MIN TEMP:  59; 6HR MAX TEMP:  78; 6HR PCP:  0.23;

ARTESIA        SUNNY     77  34  20 W24G32    29.82S
CARLSBAD       SUNNY     79  36  21 SW18      29.81S
6HR MIN TEMP:  73; 6HR MAX TEMP:  81;

HOBBS          MOSUNNY   73  37  27 SW15G22   29.85S


$$


USA.gov is the U.S. government's official web portal to all federal, state and local government web resources and services.